This demonstration page uses our WeatherBlox Daily Observations layout. Learn more.

Left ArrowRight Arrow

39.92423, -83.80882

Hourly Observations for May 10, 2021

Temp ( °F °C ) Dew Point ( °F °C ) Humidity (%) Winds ( mph kmh ) Pressure ( in mb ) Visibility ( mi km ) Precip ( " mm )
12:56 am 00:56 Clear 38 3.3 38 3.3 100 100 N 6 9 30.02 1017 10 16 N/A
1:56 am 01:56 Clear 37 2.8 37 2.8 100 100 NNW 3 6 30.04 1017 10 16 N/A
2:56 am 02:56 Clear 36 2 N/A N/A N N/A 30.05 1018 10 16 N/A
3:56 am 03:56 Clear 36 2 N/A N/A WNW 3 6 30.07 1018 8 13 N/A
4:56 am 04:56 Clear with Mist and Fog 34 1 N/A N/A NW 3 6 30.07 1018 3 5 N/A
5:01 am 05:01 Clear with Mist and Fog 34 1 N/A N/A NW 3 6 30.09 1019 2 2 N/A
5:03 am 05:03 Mostly Cloudy with Mist and Fog 34 1 N/A N/A NW 3 6 30.10 1019 1 2 N/A
5:07 am 05:07 Mostly Cloudy with Fog 34 1 N/A N/A N N/A 30.10 1019 1 1 N/A
5:22 am 05:22 Mostly Cloudy with Mist and Fog 34 1 N/A N/A N N/A 30.10 1019 1 1 N/A
5:56 am 05:56 Cloudy with Mist and Fog 32 undefined N/A N/A N N/A 30.09 1019 1 1 N/A
6:10 am 06:10 Cloudy with Fog 32 undefined N/A N/A N N/A 30.10 1019 1 1 N/A
6:22 am 06:22 Cloudy with Fog 32 undefined N/A N/A NNW 3 6 30.11 1020 0 0 N/A
6:56 am 06:56 Cloudy with Fog 34 1 N/A N/A N N/A 30.11 1020 N/A N/A
7:56 am 07:56 Cloudy with Fog 36 2 N/A N/A N 3 6 30.14 1021 0 0 N/A
8:18 am 08:18 Cloudy with Fog 36 2 N/A N/A NNE 3 6 30.16 1021 1 1 N/A
8:28 am 08:28 Cloudy with Mist and Fog 37 3 N/A N/A N 3 6 30.15 1021 1 2 N/A
8:42 am 08:42 Cloudy with Mist and Fog 39 4 N/A N/A N 5 7 30.15 1021 2 3 N/A
8:56 am 08:56 Mostly Cloudy 41 5 N/A N/A N 5 7 30.14 1021 7 11 N/A
9:03 am 09:03 Mostly Sunny 41 5 N/A N/A N 5 7 30.14 1021 10 16 N/A
9:56 am 09:56 Sunny 46 8 N/A N/A N 8 13 30.14 1021 10 16 N/A
10:56 am 10:56 Sunny 50 10 41 5 71 71 NNE 6 9 30.14 1021 10 16 N/A
11:56 am 11:56 Partly Cloudy 53 11.7 38 3.3 57 57 NNW 6 9 30.14 1021 10 16 N/A
12:56 pm 12:56 Partly Cloudy 56 13.3 38 3.3 51 51 VRB 6 9 30.14 1021 10 16 N/A
1:56 pm 13:56 Mostly Cloudy 57 13.9 40 4.4 53 53 VRB 6 9 30.12 1020 10 16 N/A
2:56 pm 14:56 Mostly Cloudy 58 14.4 39 3.9 50 50 N N/A 30.14 1021 10 16 N/A
3:56 pm 15:56 Sunny 57 13.9 38 3.3 49 49 W 5 7 30.14 1021 10 16 N/A
4:56 pm 16:56 Sunny 57 13.9 40 4.4 53 53 VRB 5 7 30.14 1021 10 16 N/A
5:56 pm 17:56 Sunny 57 13.9 41 5 55 55 WNW 8 13 30.14 1021 10 16 N/A
6:56 pm 18:56 Partly Cloudy 56 13.3 41 5 57 57 WSW 5 7 30.13 1020 10 16 N/A
7:56 pm 19:56 Partly Cloudy 55 12.8 44 6.7 67 67 N N/A 30.14 1021 10 16 N/A
8:56 pm 20:56 Clear 52 11.1 42 5.6 69 69 N N/A 30.14 1021 10 16 N/A
9:56 pm 21:56 Clear 50 10 49 9.4 96 96 N N/A 30.14 1021 10 16 N/A
10:56 pm 22:56 Partly Cloudy 49 9.4 47 8.3 93 93 NW 3 6 30.15 1021 10 16 N/A
11:56 pm 23:56 Partly Cloudy 48 8.9 47 8.3 96 96 W 3 6 30.16 1021 10 16 N/A

Powered by AerisWeather